Tracking 25723 objects as of 27-Jun-2022
HD Live streaming from Space Station
objects crossing your sky now

STARLINK-1486

Track STARLINK-1486 now!
10-day predictions
STARLINK-1486 is classified as:


NORAD ID: 45757
Int'l Code: 2020-038AD
Perigee: 553.0 km
Apogee: 555.7 km
Inclination: 53.1 °
Period: 95.6 minutes
Semi major axis: 6925 km
RCS: Unknown
Launch date: June 13, 2020
Source: United States (US)
Launch site: AIR FORCE EASTERN TEST RANGE (AFETR)
aabbcc
Your satellite tracking list
Your tracking list is empty




NASA's NSSDC Master Catalog

Two Line Element Set (TLE):
1 45757U 20038AD  22177.46375545 -.00000519  00000-0 -15929-4 0  9996
2 45757  53.0541 167.0003 0001983  50.6905 309.4259 15.06396476113779
Source of the keplerian elements: AFSPC